DW2213 Weather Reports


time (UTC)temp
F
wind
direction
speed
knots
gust
knots
rain 1hr
in
rain 24hr
in
rain mn
in
humidity
%
barometer
mb
20260901014804 79 31 0.0 0.0 0.00 0.00 0.00 88 1014.1
20260901014304 79 31 0.0 0.0 0.00 0.00 0.00 88 1014.2
20260901013804 79 31 0.0 0.0 0.00 0.00 0.00 88 1014.2
20260901012306 79 31 0.0 0.0 0.00 0.00 0.00 88 1014.3
20260901011804 79 31 0.0 0.0 0.00 0.00 0.00 88 1014.3
20260901011304 79 31 0.0 0.0 0.00 0.00 0.00 87 1014.3
20260901010804 79 31 0.0 0.0 0.00 0.00 0.00 87 1014.5
20260901005307 79 31 0.0 0.0 0.00 0.00 0.00 87 1014.6
20260901004804 79 31 0.0 0.0 0.00 0.00 0.00 87 1014.6
20260901004304 79 31 0.0 0.0 0.00 0.00 0.00 87 1014.6
20260901003805 79 36 0.0 0.0 0.00 0.00 0.00 87 1014.7
20260901003304 79 44 0.9 1.7 0.00 0.00 0.00 87 1014.7
20260901002805 79 44 0.0 1.7 0.00 0.00 0.00 87 1014.6
20260901002305 79 44 0.0 0.9 0.00 0.00 0.00 87 1014.7
20260901001804 79 44 0.0 0.9 0.00 0.00 0.00 87 1014.7
20260901001304 79 44 0.0 0.9 0.00 0.00 0.00 87 1014.6
20260901000804 80 43 0.0 1.7 0.00 0.00 0.00 87 1014.6
20260901000304 80 347 0.0 0.9 0.00 0.00 0.00 87 1014.7
20260831235804 80 24 0.0 2.6 0.00 0.00 0.00 87 1014.7
20260831235306 80 34 0.0 0.0 0.00 0.00 0.00 87 1014.8
20260831234804 80 34 0.0 2.6 0.00 0.00 0.00 87 1014.8
20260831234305 80 27 0.0 1.7 0.00 0.00 0.00 87 1014.8
20260831233804 80 25 0.0 1.7 0.00 0.00 0.00 87 1014.8
20260831233305 80 0 0.0 2.6 0.00 0.00 0.00 87 1014.8
20260831232804 80 0 0.0 2.6 0.00 0.00 0.00 87 1014.8
20260831231304 80 19 0.0 2.6 0.00 0.00 0.00 86 1014.8
20260831230803 80 102 0.0 0.9 0.00 0.00 0.00 86 1014.8
20260831230304 80 102 0.0 0.9 0.00 0.00 0.00 86 1014.8
20260831225804 80 102 0.0 0.0 0.00 0.00 0.00 86 1014.8
20260831225306 80 102 0.0 0.9 0.00 0.00 0.00 86 1014.7
20260831224304 81 102 0.0 1.7 0.00 0.00 0.00 86 1014.8
20260831223804 81 102 0.0 0.9 0.00 0.00 0.00 85 1014.7
20260831223304 80 102 0.0 0.0 0.00 0.00 0.00 85 1014.7
20260831222804 80 102 0.0 0.0 0.00 0.00 0.00 85 1014.8
20260831221804 80 102 0.0 0.0 0.00 0.00 0.00 85 1014.7
20260831220819 80 102 0.0 1.7 0.00 0.00 0.00 85 1014.6
20260831220305 80 87 0.0 0.9 0.00 0.00 0.00 85 1014.5
20260831215804 80 86 0.0 0.0 0.00 0.00 0.00 85 1014.4
20260831215306 80 86 0.0 0.9 0.00 0.00 0.00 85 1014.4
20260831214304 81 86 0.0 0.9 0.00 0.00 0.00 85 1014.4
20260831213804 81 86 0.0 0.0 0.00 0.00 0.00 85 1014.4
20260831213304 81 86 0.0 0.0 0.00 0.00 0.00 85 1014.3
20260831212804 81 86 0.0 0.0 0.00 0.00 0.00 85 1014.2
20260831212306 81 86 0.0 0.9 0.00 0.00 0.00 85 1014.2
20260831211804 81 86 0.0 1.7 0.00 0.00 0.00 85 1014.2
20260831211304 81 86 0.0 1.7 0.00 0.00 0.00 85 1014.1
20260831210304 81 104 0.0 0.9 0.00 0.00 0.00 85 1014.1
20260831205804 81 104 0.0 1.7 0.00 0.00 0.00 85 1014.1
20260831205305 81 104 0.0 1.7 0.00 0.00 0.00 85 1014.1
20260831203803 81 107 0.0 1.7 0.00 0.00 0.00 84 1014.0
20260831203304 81 102 0.0 1.7 0.00 0.00 0.00 84 1013.9
20260831201804 81 132 0.0 1.7 0.00 0.00 0.00 83 1013.7
20260831201304 81 135 0.9 4.3 0.00 0.00 0.00 83 1013.7
20260831200803 81 78 0.0 1.7 0.00 0.00 0.00 83 1013.7
20260831200303 81 77 0.0 0.0 0.00 0.00 0.00 83 1013.7
20260831195804 81 77 0.0 1.7 0.00 0.00 0.00 83 1013.6
20260831195306 81 79 0.0 2.6 0.00 0.00 0.00 83 1013.5
20260831194803 81 85 0.0 1.7 0.00 0.00 0.00 82 1013.3
20260831194304 81 85 0.9 1.7 0.00 0.00 0.00 82 1013.2
20260831193804 81 9 0.0 0.9 0.00 0.00 0.00 82 1013.1
20260831193304 81 10 0.0 0.0 0.00 0.00 0.00 82 1012.9
20260831192804 81 9 0.9 2.6 0.00 0.00 0.00 82 1012.9
20260831192305 81 66 0.0 1.7 0.00 0.00 0.00 82 1012.8
20260831191303 81 63 0.0 0.9 0.00 0.00 0.00 82 1012.7
20260831190804 81 56 0.0 1.7 0.00 0.00 0.00 82 1012.6
20260831190304 81 77 0.9 6.1 0.00 0.00 0.00 81 1012.5
20260831185804 81 120 0.0 1.7 0.00 0.00 0.00 81 1012.5
20260831185306 81 121 0.0 0.9 0.00 0.00 0.00 81 1012.5
20260831184803 81 121 0.0 2.6 0.00 0.00 0.00 81 1012.5
20260831184304 81 332 0.0 2.6 0.00 0.00 0.00 81 1012.5
20260831183303 81 140 0.0 2.6 0.00 0.00 0.00 81 1012.3
20260831182804 81 131 0.0 0.9 0.00 0.00 0.00 80 1012.3
20260831182305 81 121 0.0 5.2 0.00 0.00 0.00 80 1012.3
20260831181804 81 136 0.0 1.7 0.00 0.00 0.00 80 1012.3
20260831181304 81 136 0.0 2.6 0.00 0.00 0.00 79 1012.3
20260831180804 82 145 0.9 2.6 0.00 0.00 0.00 79 1012.3
20260831180304 82 128 0.9 4.3 0.00 0.00 0.00 79 1012.2
20260831175803 82 112 0.9 5.2 0.00 0.00 0.00 78 1012.2
20260831174804 82 134 0.9 4.3 0.00 0.00 0.00 77 1012.2
20260831174304 82 133 0.9 4.3 0.00 0.00 0.00 76 1012.2
20260831172803 83 135 0.9 4.3 0.00 0.00 0.00 75 1012.0
20260831172306 83 117 0.0 4.3 0.00 0.00 0.00 74 1012.0
20260831171304 83 145 0.9 4.3 0.00 0.00 0.00 74 1011.9
20260831170305 84 130 0.9 4.3 0.00 0.00 0.00 72 1011.9
20260831165805 84 137 0.9 6.1 0.00 0.00 0.00 71 1011.9
20260831164805 85 147 1.7 4.3 0.00 0.00 0.00 69 1012.0
20260831164305 86 128 1.7 5.2 0.00 0.00 0.00 69 1012.0
20260831163805 86 138 1.7 5.2 0.00 0.00 0.00 68 1012.0
20260831162306 87 113 1.7 5.2 0.00 0.00 0.00 64 1012.2
20260831161305 88 132 0.9 4.3 0.00 0.00 0.00 56 1012.2
20260831160805 88 129 0.9 4.3 0.00 0.00 0.00 56 1012.2
20260831160305 89 151 1.7 4.3 0.00 0.00 0.00 54 1012.3
20260831155805 89 115 0.9 2.6 0.00 0.00 0.00 54 1012.3
20260831154805 88 144 1.7 4.3 0.00 0.00 0.00 55 1012.4
20260831154305 88 118 0.9 4.3 0.00 0.00 0.00 55 1012.5
20260831153805 88 142 1.7 7.0 0.00 0.00 0.00 56 1012.4
20260831152804 88 152 1.7 5.2 0.00 0.00 0.00 58 1012.5
20260831152306 88 145 1.7 4.3 0.00 0.00 0.00 59 1012.5
20260831151804 88 127 0.9 4.3 0.00 0.00 0.00 61 1012.5
20260831151305 88 144 0.9 2.6 0.00 0.00 0.00 63 1012.5
20260831150805 88 151 0.9 5.2 0.00 0.00 0.00 66 1012.6
20260831150305 87 153 0.0 4.3 0.00 0.00 0.00 67 1012.6
20260831145805 88 144 0.0 2.6 0.00 0.00 0.00 67 1012.5
20260831145306 88 127 0.9 4.3 0.00 0.00 0.00 67 1012.5
20260831144805 88 150 1.7 5.2 0.00 0.00 0.00 67 1012.6
20260831144304 88 165 1.7 4.3 0.00 0.00 0.00 67 1012.6
20260831143805 88 141 2.6 5.2 0.00 0.00 0.00 67 1012.6
20260831143305 88 140 1.7 5.2 0.00 0.00 0.00 67 1012.7
20260831142805 88 132 1.7 4.3 0.00 0.00 0.00 67 1012.7
20260831142306 88 133 1.7 4.3 0.00 0.00 0.00 67 1012.6
20260831141805 88 160 1.7 7.0 0.00 0.00 0.00 67 1012.6
20260831141305 87 186 1.7 5.2 0.00 0.00 0.00 69 1012.6
20260831140804 87 142 0.9 4.3 0.00 0.00 0.00 68 1012.7
20260831135805 88 147 0.0 6.1 0.00 0.00 0.00 67 1012.8
20260831135306 87 158 0.9 4.3 0.00 0.00 0.00 70 1012.7
20260831134805 87 119 0.9 4.3 0.00 0.00 0.00 69 1012.8
20260831134305 87 13 1.7 4.3 0.00 0.00 0.00 67 1012.8
20260831133805 88 74 0.9 2.6 0.00 0.00 0.00 65 1012.9
20260831133305 88 46 0.9 2.6 0.00 0.00 0.00 65 1012.9
20260831132805 88 342 0.9 2.6 0.00 0.00 0.00 66 1012.9
20260831132307 87 7 1.7 2.6 0.00 0.00 0.00 66 1012.8
20260831131805 88 1 1.7 5.2 0.00 0.00 0.00 65 1012.9
20260831131305 88 331 0.9 2.6 0.00 0.00 0.00 66 1012.9
20260831130805 88 88 0.9 4.3 0.00 0.00 0.00 66 1012.9
20260831130304 88 50 0.9 4.3 0.00 0.00 0.00 65 1012.9
20260831125805 87 50 0.0 2.6 0.00 0.00 0.00 67 1013.0
20260831125306 87 60 1.7 5.2 0.00 0.00 0.00 67 1013.1
20260831124804 87 53 1.7 5.2 0.00 0.00 0.00 66 1013.1
20260831124304 88 326 0.9 2.6 0.00 0.00 0.00 66 1013.2
20260831123304 88 24 0.9 2.6 0.00 0.00 0.00 65 1013.3
20260831122805 88 355 0.9 4.3 0.00 0.00 0.00 65 1013.3
20260831122306 88 98 0.9 4.3 0.00 0.00 0.00 67 1013.4
20260831121804 87 106 0.9 2.6 0.00 0.00 0.00 65 1013.4
20260831121304 87 56 0.0 2.6 0.00 0.00 0.00 65 1013.5
20260831120304 87 22 0.9 2.6 0.00 0.00 0.00 66 1013.4
20260831115805 88 264 0.9 2.6 0.00 0.00 0.00 65 1013.5
20260831115306 87 38 0.0 2.6 0.00 0.00 0.00 67 1013.6
20260831114805 87 46 0.9 2.6 0.00 0.00 0.00 67 1013.6
20260831114304 87 26 0.9 4.3 0.00 0.00 0.00 66 1013.6
20260831113804 87 356 0.0 2.6 0.00 0.00 0.00 65 1013.5
20260831113305 87 354 0.9 4.3 0.00 0.00 0.00 66 1013.6
20260831112805 87 41 0.9 5.2 0.00 0.00 0.00 67 1013.7
20260831112307 86 47 0.9 2.6 0.00 0.00 0.00 67 1013.7
20260831111805 86 0 1.7 4.3 0.00 0.00 0.00 66 1013.7
20260831111305 87 13 0.9 2.6 0.00 0.00 0.00 67 1013.8
20260831110805 86 330 0.9 4.3 0.00 0.00 0.00 67 1013.8
20260831110305 86 323 0.9 2.6 0.00 0.00 0.00 67 1013.9
20260831105306 86 346 0.0 2.6 0.00 0.00 0.00 67 1014.1
20260831103804 86 59 0.9 4.3 0.00 0.00 0.00 68 1014.1
20260831103304 86 48 0.0 1.7 0.00 0.00 0.00 69 1014.1
20260831102804 84 74 0.9 4.3 0.00 0.00 0.00 71 1014.1
20260831102306 84 1 0.9 5.2 0.00 0.00 0.00 71 1014.1
20260831101805 85 37 0.9 2.6 0.00 0.00 0.00 69 1014.1
20260831101304 85 29 0.9 2.6 0.00 0.00 0.00 70 1014.0
20260831100805 84 0 0.9 4.3 0.00 0.00 0.00 72 1014.1
20260831095306 84 38 0.9 4.3 0.00 0.00 0.00 72 1014.1
20260831094805 84 93 0.0 1.7 0.00 0.00 0.00 72 1014.1
20260831093304 84 96 0.9 2.6 0.00 0.00 0.00 71 1014.0
20260831092805 84 48 0.9 2.6 0.00 0.00 0.00 71 1014.0
20260831092306 84 37 0.9 2.6 0.00 0.00 0.00 71 1014.0
20260831091805 84 345 0.0 2.6 0.00 0.00 0.00 71 1013.9
20260831091304 83 320 0.0 0.9 0.00 0.00 0.00 72 1013.9
20260831090805 83 318 0.0 0.0 0.00 0.00 0.00 72 1013.8
20260831090305 82 309 0.0 0.0 0.00 0.00 0.00 73 1013.8
20260831085805 82 294 0.0 0.0 0.00 0.00 0.00 72 1013.7
20260831085306 82 294 0.0 0.0 0.00 0.00 0.00 73 1013.7
20260831084805 82 294 0.0 0.0 0.00 0.00 0.00 72 1013.6
20260831084305 81 295 0.0 0.0 0.00 0.00 0.00 73 1013.5
20260831083805 81 295 0.0 0.0 0.00 0.00 0.00 73 1013.4
20260831083305 80 294 0.0 0.0 0.00 0.00 0.00 74 1013.3
20260831082805 81 294 0.0 0.0 0.00 0.00 0.00 73 1013.3
20260831082306 80 297 0.0 0.0 0.00 0.00 0.00 74 1013.2
20260831081805 80 319 0.0 0.0 0.00 0.00 0.00 76 1013.2
20260831081305 79 313 0.0 0.0 0.00 0.00 0.00 76 1013.1
20260831080804 79 314 0.0 0.0 0.00 0.00 0.00 76 1013.1
20260831080305 79 314 0.0 0.0 0.00 0.00 0.00 77 1013.0
20260831075804 78 223 0.0 0.0 0.00 0.00 0.00 77 1012.9
20260831074304 78 223 0.0 0.0 0.00 0.00 0.00 79 1012.9
20260831073805 78 223 0.0 0.0 0.00 0.00 0.00 79 1012.9
20260831072804 77 223 0.0 0.0 0.00 0.00 0.00 80 1012.9
20260831072306 77 223 0.0 0.0 0.00 0.00 0.00 82 1012.9
20260831071805 76 223 0.0 0.0 0.00 0.00 0.00 82 1012.8
20260831070805 76 223 0.0 0.0 0.00 0.00 0.00 83 1012.7
20260831070304 75 223 0.0 0.0 0.00 0.00 0.00 83 1012.7
20260831065804 75 223 0.0 0.0 0.00 0.00 0.00 84 1012.7
20260831065306 75 223 0.0 0.0 0.00 0.00 0.00 85 1012.7
20260831064304 74 222 0.0 0.0 0.00 0.00 0.00 86 1012.5
20260831063804 74 222 0.0 0.0 0.00 0.00 0.00 86 1012.4
20260831063305 74 222 0.0 0.0 0.00 0.00 0.00 86 1012.4
20260831062306 73 222 0.0 0.0 0.00 0.00 0.00 87 1012.1
20260831061304 73 222 0.0 0.0 0.00 0.00 0.00 88 1012.0
20260831060305 73 222 0.0 0.0 0.00 0.00 0.00 88 1011.9
20260831055804 73 222 0.0 0.0 0.00 0.00 0.00 88 1011.8
20260831055306 73 222 0.0 0.0 0.00 0.00 0.00 88 1011.8
20260831054305 73 222 0.0 0.0 0.00 0.00 0.00 88 1011.7
20260831053805 73 222 0.0 0.0 0.00 0.00 0.00 88 1011.7
20260831053305 73 222 0.0 0.0 0.00 0.00 0.00 88 1011.7
20260831052804 73 222 0.0 0.0 0.00 0.00 0.00 88 1011.6
20260831052307 73 222 0.0 0.0 0.00 0.00 0.00 88 1011.6
20260831051805 73 222 0.0 0.0 0.00 0.00 0.00 88 1011.6
20260831051304 73 222 0.0 0.0 0.00 0.00 0.00 88 1011.6
20260831050805 73 222 0.0 0.0 0.00 0.00 0.00 88 1011.5
20260831050304 73 222 0.0 0.0 0.00 0.00 0.00 89 1011.5
20260831045804 73 222 0.0 0.0 0.00 0.00 0.00 88 1011.5
20260831045306 73 222 0.0 0.0 0.00 0.00 0.00 88 1011.5
20260831044804 73 222 0.0 0.0 0.00 0.00 0.00 88 1011.4
20260831043805 74 222 0.0 0.0 0.00 0.00 0.00 88 1011.4
20260831043305 74 222 0.0 0.0 0.00 0.00 0.00 89 1011.3
20260831041805 74 221 0.0 0.0 0.00 0.00 0.00 89 1011.3
20260831040805 74 221 0.0 0.0 0.00 0.00 0.00 88 1011.4
20260831040305 74 221 0.0 0.0 0.00 0.00 0.00 88 1011.4
20260831035804 74 221 0.0 0.0 0.00 0.00 0.00 88 1011.4
20260831035306 75 221 0.0 0.0 0.00 0.00 0.00 88 1011.4
20260831034804 75 221 0.0 0.0 0.00 0.00 0.00 88 1011.4
20260831034305 75 221 0.0 0.0 0.00 0.00 0.00 88 1011.3
20260831033805 75 221 0.0 0.0 0.00 0.00 0.00 88 1011.3
20260831033304 75 221 0.0 0.0 0.00 0.00 0.00 88 1011.4
20260831032804 75 221 0.0 0.0 0.00 0.00 0.00 88 1011.4
20260831032306 75 221 0.0 0.0 0.00 0.00 0.00 88 1011.4
20260831031804 75 221 0.0 0.0 0.00 0.00 0.00 88 1011.4
20260831030804 75 221 0.0 0.0 0.00 0.00 0.00 87 1011.4
20260831025804 75 221 0.0 0.0 0.00 0.00 0.00 87 1011.4
20260831025306 75 221 0.0 0.0 0.00 0.00 0.00 87 1011.4
20260831024304 75 221 0.0 0.0 0.00 0.00 0.00 87 1011.4
20260831023805 75 221 0.0 0.0 0.00 0.00 0.00 87 1011.4
20260831023305 75 221 0.0 0.0 0.00 0.00 0.00 87 1011.5
20260831022804 75 221 0.0 0.0 0.00 0.00 0.00 87 1011.5
20260831022306 75 221 0.0 0.0 0.00 0.00 0.00 87 1011.5
20260831021805 75 221 0.0 0.0 0.00 0.00 0.00 87 1011.4
20260831021305 76 221 0.0 0.0 0.00 0.00 0.00 87 1011.5
20260831020804 76 221 0.0 0.0 0.00 0.00 0.00 87 1011.5
20260831020304 76 221 0.0 0.0 0.00 0.00 0.00 87 1011.5
20260831015805 76 221 0.0 0.0 0.00 0.00 0.00 87 1011.5
20260831015306 76 221 0.0 0.0 0.00 0.00 0.00 87 1011.5